Location: ????????
(38.4362°N, 22.8767°E)
Time: 03:25:52
(UTC+00:00)

Cosmos 1515 Rocket - Pass Details

Date: 23 April 2024
Orbit: 602 x 627 km, 82.5° (Epoch: 20 May)

Event Time Altitude Azimuth Distance (km) Brightness Sun altitude
Exits shadow 02:03:18 38° 241° (WSW) 954 4.0 -18.2°
Maximum altitude 02:04:22 46° 280° (W) 839 3.9 -18.0°
Drops below altitude 10° 02:08:38 10° 355° (N) 2,002 6.5 -17.3°
Sets 02:10:57 0° 1° (N) 2,909 7.5 -16.9°
